Tracking 18630 objects as of 23-May-2017
HD Live streaming from Space Station
objects crossing your sky now

NAVSTAR 36 (USA 100)

Track NAVSTAR 36 (USA 100) now!
NAVSTAR 36 (USA 100) is classified as:


NORAD ID: 23027
Int'l Code: 1994-016A
Perigee: 19,867.5 km
Apogee: 20,510.9 km
Inclination: 54.8 °
Period: 718.0 minutes
Semi major axis: 26560 km
RCS: 2.0263 m2 (large)
Launch date: March 10, 1994
Source: United States (US)
Launch site: AIR FORCE EASTERN TEST RANGE (AFETR)
PRN:
Your satellite tracking list
Your tracking list is empty





NASA's NSSDC Master Catalog

Two Line Element Set (TLE):
1 23027U 94016A   17142.34592400 -.00000067 +00000-0 +00000-0 0  9990
2 23027 054.7873 036.2097 0121120 021.2467 155.5473 02.00564906169992
Source of the keplerian elements: AFSPC